TimeCDT,TemperatureF,Dew PointF,Humidity,Sea Level PressureIn,VisibilityMPH,Wind Direction,Wind SpeedMPH,Gust SpeedMPH,PrecipitationIn,Events,Conditions,WindDirDegrees,DateUTC
12:15 AM,55.4,50.0,82,29.91,10.0,SSE,6.9,-,N/A,,Clear,160,2013-06-08 05:15:00
12:36 AM,55.4,50.0,82,29.90,10.0,SE,6.9,-,N/A,,Clear,140,2013-06-08 05:36:00
12:55 AM,53.6,50.0,88,29.90,10.0,SE,6.9,-,N/A,,Clear,140,2013-06-08 05:55:00
1:15 AM,53.6,50.0,88,29.90,10.0,SE,6.9,-,N/A,,Clear,140,2013-06-08 06:15:00
1:36 AM,53.6,50.0,88,29.90,10.0,SE,5.8,-,N/A,,Clear,140,2013-06-08 06:36:00
1:55 AM,53.6,50.0,88,29.89,10.0,SE,8.1,-,N/A,,Scattered Clouds,140,2013-06-08 06:55:00
2:15 AM,53.6,50.0,88,29.89,10.0,SSE,6.9,-,N/A,,Clear,150,2013-06-08 07:15:00
2:36 AM,53.6,50.0,88,29.89,10.0,SSE,8.1,-,N/A,,Clear,150,2013-06-08 07:36:00
2:55 AM,53.6,50.0,88,29.89,10.0,SE,6.9,-,N/A,,Clear,140,2013-06-08 07:55:00
3:15 AM,51.8,50.0,94,29.90,10.0,SSE,9.2,-,N/A,,Clear,160,2013-06-08 08:15:00
3:36 AM,51.8,50.0,94,29.89,10.0,SE,6.9,-,N/A,,Clear,140,2013-06-08 08:36:00
3:55 AM,51.8,50.0,94,29.88,10.0,SE,9.2,-,N/A,,Clear,140,2013-06-08 08:55:00
4:15 AM,51.8,50.0,94,29.88,10.0,SE,9.2,-,N/A,,Clear,140,2013-06-08 09:15:00
4:36 AM,51.8,48.2,88,29.88,10.0,SE,9.2,-,N/A,,Clear,140,2013-06-08 09:36:00
4:55 AM,51.8,48.2,88,29.88,10.0,SSE,8.1,-,N/A,,Clear,150,2013-06-08 09:55:00
5:15 AM,51.8,48.2,88,29.89,10.0,SE,8.1,-,N/A,,Clear,140,2013-06-08 10:15:00
5:36 AM,51.8,48.2,88,29.89,10.0,SE,6.9,-,N/A,,Clear,140,2013-06-08 10:36:00
5:55 AM,51.8,48.2,88,29.89,10.0,SE,9.2,-,N/A,,Clear,140,2013-06-08 10:55:00
6:15 AM,51.8,50.0,94,29.89,10.0,SE,10.4,-,N/A,,Clear,140,2013-06-08 11:15:00
6:36 AM,51.8,50.0,94,29.89,10.0,SE,9.2,-,N/A,,Clear,140,2013-06-08 11:36:00
6:55 AM,53.6,50.0,88,29.90,10.0,SE,9.2,-,N/A,,Clear,140,2013-06-08 11:55:00
7:15 AM,53.6,50.0,88,29.89,10.0,SSE,9.2,-,N/A,,Clear,150,2013-06-08 12:15:00
7:36 AM,55.4,50.0,82,29.90,10.0,SSE,8.1,-,N/A,,Clear,150,2013-06-08 12:36:00
7:55 AM,57.2,50.0,77,29.89,10.0,SE,11.5,-,N/A,,Clear,140,2013-06-08 12:55:00
8:15 AM,59.0,50.0,72,29.89,10.0,SE,11.5,-,N/A,,Clear,130,2013-06-08 13:15:00
8:35 AM,59.0,50.0,72,29.88,10.0,SE,9.2,-,N/A,,Clear,140,2013-06-08 13:35:00
8:55 AM,60.8,50.0,68,29.88,10.0,SE,13.8,18.4,N/A,,Clear,140,2013-06-08 13:55:00
9:16 AM,60.8,50.0,68,29.88,10.0,SE,13.8,-,N/A,,Clear,140,2013-06-08 14:16:00
9:35 AM,62.6,50.0,63,29.88,10.0,SE,11.5,-,N/A,,Clear,140,2013-06-08 14:35:00
9:55 AM,62.6,50.0,63,29.88,10.0,SE,13.8,-,N/A,,Clear,130,2013-06-08 14:55:00
10:16 AM,62.6,50.0,63,29.88,10.0,SSE,15.0,19.6,N/A,,Clear,150,2013-06-08 15:16:00
10:35 AM,64.4,50.0,59,29.88,10.0,SSE,13.8,18.4,N/A,,Clear,150,2013-06-08 15:35:00
10:56 AM,64.4,50.0,59,29.88,10.0,SSE,15.0,20.7,N/A,,Scattered Clouds,150,2013-06-08 15:56:00
11:16 AM,64.4,50.0,59,29.88,10.0,SSE,11.5,19.6,N/A,,Scattered Clouds,150,2013-06-08 16:16:00
11:35 AM,64.4,50.0,59,29.88,10.0,SSE,15.0,-,N/A,,Scattered Clouds,160,2013-06-08 16:35:00
11:56 AM,64.4,48.2,56,29.88,10.0,SE,13.8,20.7,N/A,,Scattered Clouds,140,2013-06-08 16:56:00
12:16 PM,64.4,48.2,56,29.88,10.0,SSE,13.8,-,N/A,,Scattered Clouds,150,2013-06-08 17:16:00
12:35 PM,66.2,50.0,56,29.88,10.0,SE,12.7,20.7,N/A,,Scattered Clouds,140,2013-06-08 17:35:00
12:56 PM,66.2,48.2,52,29.88,10.0,SE,15.0,20.7,N/A,,Clear,140,2013-06-08 17:56:00
1:16 PM,66.2,48.2,52,29.88,10.0,SE,13.8,23.0,N/A,,Clear,140,2013-06-08 18:16:00
1:35 PM,68.0,50.0,52,29.88,10.0,SE,17.3,20.7,N/A,,Scattered Clouds,140,2013-06-08 18:35:00
1:55 PM,68.0,48.2,49,29.88,10.0,SE,15.0,18.4,N/A,,Clear,130,2013-06-08 18:55:00
2:16 PM,68.0,46.4,46,29.87,10.0,SE,15.0,18.4,N/A,,Clear,140,2013-06-08 19:16:00
2:35 PM,69.8,46.4,43,29.87,10.0,SE,15.0,19.6,N/A,,Clear,140,2013-06-08 19:35:00
2:55 PM,68.0,46.4,46,29.87,10.0,SE,12.7,19.6,N/A,,Scattered Clouds,130,2013-06-08 19:55:00
3:16 PM,68.0,46.4,46,29.87,10.0,SE,13.8,-,N/A,,Clear,140,2013-06-08 20:16:00
3:35 PM,69.8,48.2,46,29.86,10.0,SE,16.1,-,N/A,,Clear,140,2013-06-08 20:35:00
3:55 PM,69.8,46.4,43,29.86,10.0,SE,16.1,20.7,N/A,,Clear,140,2013-06-08 20:55:00
4:16 PM,69.8,50.0,49,29.86,10.0,SSE,13.8,18.4,N/A,,Clear,160,2013-06-08 21:16:00
4:35 PM,68.0,48.2,49,29.87,10.0,SE,11.5,17.3,N/A,,Clear,140,2013-06-08 21:35:00
4:55 PM,69.8,48.2,46,29.87,10.0,SSE,12.7,16.1,N/A,,Clear,150,2013-06-08 21:55:00
5:16 PM,68.0,50.0,52,29.87,10.0,SE,13.8,19.6,N/A,,Clear,130,2013-06-08 22:16:00
5:35 PM,69.8,48.2,46,29.87,10.0,SSE,15.0,19.6,N/A,,Clear,150,2013-06-08 22:35:00
5:55 PM,69.8,48.2,46,29.87,10.0,SE,17.3,-,N/A,,Clear,130,2013-06-08 22:55:00
6:16 PM,69.8,46.4,43,29.86,10.0,SE,12.7,-,N/A,,Clear,140,2013-06-08 23:16:00
6:35 PM,68.0,46.4,46,29.87,10.0,SE,11.5,19.6,N/A,,Clear,140,2013-06-08 23:35:00
6:55 PM,68.0,46.4,46,29.87,10.0,SE,15.0,19.6,N/A,,Clear,140,2013-06-08 23:55:00
7:16 PM,68.0,46.4,46,29.87,10.0,SSE,16.1,20.7,N/A,,Clear,150,2013-06-09 00:16:00
7:35 PM,68.0,48.2,49,29.88,10.0,SSE,13.8,20.7,N/A,,Clear,150,2013-06-09 00:35:00
7:56 PM,66.2,48.2,52,29.88,10.0,SSE,12.7,-,N/A,,Clear,150,2013-06-09 00:56:00
8:15 PM,66.2,46.4,49,29.88,10.0,SSE,12.7,16.1,N/A,,Clear,160,2013-06-09 01:15:00
8:36 PM,64.4,46.4,52,29.88,10.0,SSE,10.4,17.3,N/A,,Clear,150,2013-06-09 01:36:00
8:55 PM,64.4,50.0,59,29.88,10.0,SE,8.1,-,N/A,,Clear,140,2013-06-09 01:55:00
9:16 PM,64.4,50.0,59,29.89,10.0,SSE,8.1,-,N/A,,Clear,150,2013-06-09 02:16:00
9:35 PM,62.6,50.0,63,29.88,10.0,SSE,9.2,-,N/A,,Clear,150,2013-06-09 02:35:00
9:55 PM,62.6,50.0,63,29.89,10.0,SE,6.9,-,N/A,,Clear,140,2013-06-09 02:55:00
10:16 PM,62.6,50.0,63,29.89,10.0,SE,6.9,-,N/A,,Scattered Clouds,140,2013-06-09 03:16:00
10:35 PM,62.6,50.0,63,29.89,10.0,SE,5.8,-,N/A,,Clear,130,2013-06-09 03:35:00
10:55 PM,62.6,50.0,63,29.90,10.0,SE,4.6,-,N/A,,Clear,130,2013-06-09 03:55:00
11:16 PM,62.6,50.0,63,29.90,10.0,SE,5.8,-,N/A,,Clear,130,2013-06-09 04:16:00
11:35 PM,60.8,50.0,68,29.91,10.0,SE,5.8,-,N/A,,Clear,140,2013-06-09 04:35:00
11:55 PM,60.8,50.0,68,29.90,10.0,ESE,5.8,-,N/A,,Clear,120,2013-06-09 04:55:00